Weather History for KEPH - April, 2014

Change the Weather History Date:

Tuesday, April 22, 2014

  Actual Average Record
Temperature  
Mean Temperature 50 °F 52 °F  
Max Temperature 61 °F 65 °F 83 °F (2012)
Min Temperature 39 °F 39 °F 28 °F (1985)
Degree Days  
Heating Degree Days 15 13  
Month to date heating degree days 282 343  
Since 1 July heating degree days 5526 5600  
Cooling Degree Days 0 0  
Month to date cooling degree days 0 0  
Year to date cooling degree days 0 0  
Growing Degree Days 1 (Base 50)    
Moisture  
Dew Point 34 °F    
Average Humidity 57    
Maximum Humidity 93    
Minimum Humidity 21    
Precipitation  
Precipitation 0.32 in 0.01 in 0.32 in (2014)
Month to date precipitation 0.55 0.37  
Year to date precipitation 2.31 2.70  
Sea Level Pressure  
Sea Level Pressure 29.74 in    
Wind  
Wind Speed 11 mph (West)    
Max Wind Speed 22 mph    
Max Gust Speed 29 mph    
Visibility 9 miles    
Events Rain    
T = Trace of Precipitation, MM = Missing Value Source: NWS Daily Summary

Daily Weather History Graph

Daily Weather History Graph

Search for Another Location

Airport or City:

Trip Planner

Search our weather history database for the weather conditions in past years. The results will help you decide how hot, cold, wet, or windy it might be!

Date:

Astronomy

Apr. 22, 2014 Rise Set
Actual Time 5:56 AM PDT 7:57 PM PDT
Civil Twilight 5:23 AM PDT 8:30 PM PDT
Nautical Twilight 4:43 AM PDT 9:11 PM PDT
Astronomical Twilight 3:58 AM PDT 9:56 PM PDT
Moon 2:17 AM PDT (4/22) 12:37 PM PDT (4/22)
Length of Visible Light 15h 06m
Length of Day
14h 00m
Last Quarter, 45% of the Moon is Illuminated
Apr 22
Last Quarter
Apr 28
New
May 6
First Quarter
May 14
Full
May 21
Last Quarter

Hourly Weather History & Observations

Time (PDT) Temp. Windchill Dew Point Humidity Pressure Visibility Wind Dir Wind Speed Gust Speed Precip Events Conditions
12:53 AM 51.1 °F - 46.0 °F 83% 29.73 in 5.0 mi WNW 8.1 mph - 0.10 in Rain Rain
1:53 AM 50.0 °F - 46.9 °F 89% 29.72 in 7.0 mi WSW 11.5 mph - 0.08 in Rain Rain
2:53 AM 48.9 °F - 46.9 °F 93% 29.72 in 6.0 mi SW 10.4 mph - 0.08 in Rain Light Rain
4:53 AM 46.9 °F - 45.0 °F 93% 29.68 in 10.0 mi SSW 5.8 mph - 0.03 in Rain Light Rain
5:32 AM 46.9 °F - 45.0 °F 93% 29.69 in 10.0 mi SSW 10.4 mph - 0.01 in Rain Light Rain
5:53 AM 46.9 °F - 45.0 °F 93% 29.68 in 10.0 mi SSW 8.1 mph - 0.01 in Rain Light Rain
6:09 AM 46.9 °F - 44.1 °F 90% 29.68 in 10.0 mi SSW 9.2 mph - 0.00 in Rain Light Rain
6:53 AM 46.9 °F - 44.1 °F 90% 29.67 in 10.0 mi South 13.8 mph - 0.01 in Rain Light Rain
7:53 AM 46.0 °F 40.6 °F 42.1 °F 86% 29.68 in 10.0 mi South 11.5 mph - 0.00 in Rain Light Rain
8:53 AM 46.9 °F - 42.1 °F 83% 29.68 in 7.0 mi Calm Calm - 0.04 in Rain Light Rain
9:53 AM 48.9 °F - 39.9 °F 71% 29.70 in 10.0 mi West 12.7 mph - 0.01 in Rain Light Rain
10:53 AM 51.1 °F - 37.9 °F 61% 29.71 in 10.0 mi WSW 11.5 mph - 0.00 in   Overcast
11:53 AM 55.0 °F - 34.0 °F 45% 29.71 in 10.0 mi West 11.5 mph 20.7 mph N/A   Partly Cloudy
12:53 PM 57.0 °F - 32.0 °F 39% 29.71 in 10.0 mi WNW 12.7 mph - N/A   Clear
1:53 PM 57.0 °F - 33.1 °F 40% 29.72 in 10.0 mi WSW 16.1 mph - N/A   Mostly Cloudy
2:53 PM 57.9 °F - 30.0 °F 35% 29.73 in 10.0 mi WNW 13.8 mph 20.7 mph N/A   Mostly Cloudy
3:53 PM 57.9 °F - 21.0 °F 24% 29.75 in 10.0 mi WNW 16.1 mph - N/A   Clear
4:53 PM 59.0 °F - 19.0 °F 21% 29.75 in 10.0 mi West 17.3 mph - N/A   Scattered Clouds
5:53 PM 57.9 °F - 18.0 °F 21% 29.76 in 10.0 mi West 12.7 mph - N/A   Clear
6:17 PM 57.0 °F - 19.9 °F 24% 29.76 in 10.0 mi NW 12.7 mph 23.0 mph N/A   Clear
6:53 PM 55.0 °F - 23.0 °F 29% 29.78 in 10.0 mi West 8.1 mph - N/A   Clear
7:53 PM 52.0 °F - 25.0 °F 35% 29.80 in 10.0 mi WNW 9.2 mph - N/A   Clear
8:53 PM 48.0 °F - 27.0 °F 44% 29.83 in 10.0 mi WNW 10.4 mph - N/A   Clear
9:53 PM 45.0 °F 40.1 °F 28.0 °F 52% 29.83 in 10.0 mi WNW 9.2 mph - N/A   Clear
10:53 PM 43.0 °F 36.8 °F 28.9 °F 58% 29.83 in 10.0 mi West 11.5 mph - N/A   Clear
11:53 PM 39.9 °F 35.1 °F 30.0 °F 68% 29.84 in 10.0 mi WSW 6.9 mph - N/A   Clear